ONEWEB-0042 (45441 NORAD) Tracking and Keplerian Element Data

This shows tracking and keplerian element data for the satellite.

Feedback or suggestion? Click here.




ElementValue
Catalog45441
NameONEWEB-0042
Epoch Orbit178
Epoch Day193.91667824
Epoch Year2020
RAAN102.353
Inclination87.5694
Eccentricity0.0021709
Argument of Perigee243.5697
Mean Anonmoly170.2538
Mean Motion14.8991157
Decay Rate-0.00050651
L11 45441U 20020T 20193.91667824 -.00050651 00000-0 -52902-2 0 9999
L22 45441 87.5694 102.3530 0021709 243.5697 170.2538 14.89911570 1785

Live tracking and technical data element details for ONEWEB-0042 (NORAD 45441). ONEWEB-0042 can be tracked NOW for your location showing map with azimuth and elevation plus other details from your city location.

Track the satellite on the map from your city or location and see movement details for azimuth, elevation, latitude, longitude, range, height, and movement on the map or in text.







IsCatalogInMostPopularTable: catalog: 45441, numindb: 26
Update: records affected: 1



GetName: 45441 ONEWEB-0042

Hit Count: updated at: Mon, 13 Jul 2020 05:33:36 GMT